AIC126 KORD-VIDP

Flight info

Callsign AIC126
Flight time N/A
Altitude 37000
Route RAYNR DCT BRTMN DCT TAAYZ DCT PECOK DCT YUY DCT NOWAA DCT PUVOK DCT VESMI/M088F370 DCT 60N050W 61N040W 61N030W 60N020W DCT ERAKA/N0493F370 DCT ETSOM DCT ORSUM DCT RENEQ DCT NOMKA DCT AKOSI DCT LAMSI DCT LIMRA DCT LURID DCT AKIKA DCT ENFAR DCT BITLA DCT KOGIS DCT KEA DCT SIT UL607 PAXIS Y707 OBRAN L321 REXUM M872 PMA Y214 RAPMA DCT MEVDO DCT ALROK DCT DEBIN DCT MIDGU M440 TULBU N881 RASKI L639 LAXOM J61 UUD A347 UKASO UKASO6G
Aircraft B77W/H-SDE1E2E3FGHIJ2J3J4J5M1RWXY/LB1D1

Departure

Time 2026-05-04 21:45
Airport Chicago O'Hare International Airport (KORD)

Arrival

Time N/A
Airport Indira Gandhi International Airport (VIDP)
Time Latitude Longitude Altitude Speed Heading
2026-05-04 21:18 41.97509 -87.89234 675 ft 0 kts 91°
2026-05-04 21:37 41.97510 -87.89263 675 ft 4 kts 94°
2026-05-04 21:37 41.97509 -87.89299 673 ft 4 kts 73°
2026-05-04 21:37 41.97497 -87.89330 674 ft 4 kts 43°
2026-05-04 21:37 41.97477 -87.89346 675 ft 1 kts 14°
2026-05-04 21:40 41.97488 -87.89343 675 ft 5 kts 14°
2026-05-04 21:41 41.97530 -87.89337 675 ft 6 kts 358°
2026-05-04 21:41 41.97577 -87.89354 675 ft 9 kts 340°
2026-05-04 21:41 41.97656 -87.89396 673 ft 13 kts 337°
2026-05-04 21:41 41.97741 -87.89430 675 ft 13 kts 356°
2026-05-04 21:42 41.97831 -87.89432 675 ft 13 kts
2026-05-04 21:42 41.97915 -87.89395 675 ft 13 kts 38°
2026-05-04 21:42 41.97977 -87.89307 674 ft 13 kts 49°
2026-05-04 21:42 41.98035 -87.89214 675 ft 13 kts 50°
2026-05-04 21:43 41.98093 -87.89122 675 ft 13 kts 50°
2026-05-04 21:43 41.98151 -87.89029 675 ft 13 kts 50°
2026-05-04 21:43 41.98214 -87.88946 674 ft 13 kts 30°
2026-05-04 21:43 41.98303 -87.88923 671 ft 13 kts
2026-05-04 21:44 41.98379 -87.88938 668 ft 10 kts 309°
2026-05-04 21:44 41.98388 -87.89040 669 ft 18 kts 271°
2026-05-04 21:44 41.98390 -87.89551 673 ft 93 kts 270°
2026-05-04 21:44 41.98390 -87.90763 670 ft 164 kts 270°
2026-05-04 21:45 41.98376 -87.92558 794 ft 208 kts 268°
2026-05-04 21:45 41.98388 -87.94493 1569 ft 209 kts 268°
2026-05-04 21:45 41.98402 -87.96476 2320 ft 219 kts 268°
2026-05-04 21:45 41.98400 -87.98518 3062 ft 216 kts 266°
2026-05-04 21:46 41.98441 -88.00597 3422 ft 232 kts 282°
2026-05-04 21:46 41.99318 -88.02488 3674 ft 252 kts 318°
2026-05-04 21:46 42.00957 -88.03575 3935 ft 275 kts 345°
2026-05-04 21:46 42.02915 -88.03674 4397 ft 289 kts
2026-05-04 21:47 42.04863 -88.02974 4944 ft 297 kts 17°
2026-05-04 21:47 42.06801 -88.01949 5620 ft 299 kts 19°
2026-05-04 21:47 42.08728 -88.00869 6293 ft 300 kts 19°
2026-05-04 21:47 42.10671 -87.99784 6931 ft 304 kts 18°
2026-05-04 21:48 42.12636 -87.98711 7566 ft 306 kts 18°
2026-05-04 21:48 42.14615 -87.97641 8174 ft 307 kts 18°
2026-05-04 21:48 42.16611 -87.96584 8768 ft 309 kts 17°
2026-05-04 21:48 42.18631 -87.95529 9315 ft 313 kts 17°
2026-05-04 21:49 42.20674 -87.94460 9888 ft 316 kts 17°
2026-05-04 21:49 42.22745 -87.93379 10370 ft 324 kts 17°
2026-05-04 21:49 42.24915 -87.92249 10492 ft 343 kts 17°
2026-05-04 21:49 42.27205 -87.91060 10654 ft 362 kts 17°
2026-05-04 21:50 42.29610 -87.89809 10813 ft 381 kts 17°
2026-05-04 21:50 42.32124 -87.88496 11162 ft 393 kts 17°
2026-05-04 21:50 42.34709 -87.87144 11622 ft 401 kts 17°
2026-05-04 21:50 42.37333 -87.85771 12213 ft 406 kts 17°
2026-05-04 21:51 42.39950 -87.84403 12911 ft 406 kts 17°
2026-05-04 21:51 42.42604 -87.83014 13557 ft 410 kts 17°
2026-05-04 21:51 42.45294 -87.81713 14115 ft 410 kts 10°
2026-05-04 21:51 42.48070 -87.80939 14610 ft 408 kts
2026-05-04 21:52 42.50896 -87.80571 15128 ft 408 kts 356°
2026-05-04 21:52 42.53728 -87.80613 15757 ft 406 kts 351°
2026-05-04 21:52 42.56540 -87.80883 16437 ft 405 kts 350°
2026-05-04 21:52 42.59370 -87.81182 17005 ft 409 kts 350°
2026-05-04 21:53 42.62224 -87.81434 17544 ft 413 kts 351°
2026-05-04 21:53 42.65066 -87.81631 18095 ft 416 kts 351°
2026-05-04 21:53 42.67963 -87.81816 18664 ft 418 kts 352°
2026-05-04 21:53 42.70896 -87.81560 18982 ft 433 kts
2026-05-04 21:54 42.73711 -87.79880 19359 ft 452 kts 29°
2026-05-04 21:54 42.76059 -87.76987 19865 ft 460 kts 45°
2026-05-04 21:54 42.78132 -87.73626 20232 ft 466 kts 46°
2026-05-04 21:54 42.80233 -87.70210 20611 ft 472 kts 46°
2026-05-04 21:55 42.82352 -87.66772 21100 ft 474 kts 46°
2026-05-04 21:55 42.84474 -87.63346 21633 ft 474 kts 46°
2026-05-04 21:55 42.86615 -87.59900 22092 ft 477 kts 45°
2026-05-04 21:55 42.88750 -87.56479 22465 ft 481 kts 45°
2026-05-04 21:56 42.90935 -87.52988 22873 ft 484 kts 45°
2026-05-04 21:56 42.93128 -87.49484 23298 ft 487 kts 45°
2026-05-04 21:56 42.95337 -87.45952 23727 ft 489 kts 45°
2026-05-04 21:56 42.97553 -87.42406 24102 ft 492 kts 45°
2026-05-04 21:57 42.99781 -87.38838 24470 ft 495 kts 45°
2026-05-04 21:57 43.02022 -87.35242 24863 ft 497 kts 45°
2026-05-04 21:57 43.04270 -87.31630 25238 ft 499 kts 45°
2026-05-04 21:57 43.06518 -87.28015 25583 ft 501 kts 45°
2026-05-04 21:58 43.08755 -87.24411 25920 ft 504 kts 45°
2026-05-04 21:58 43.11042 -87.20722 26252 ft 506 kts 45°
2026-05-04 21:58 43.13319 -87.17041 26609 ft 508 kts 45°
2026-05-04 21:58 43.15605 -87.13344 26912 ft 510 kts 45°
2026-05-04 21:59 43.17899 -87.09629 27216 ft 511 kts 45°
2026-05-04 21:59 43.20207 -87.05890 27517 ft 513 kts 45°
2026-05-04 21:59 43.22487 -87.02192 27787 ft 516 kts 45°
2026-05-04 21:59 43.24816 -86.98408 28047 ft 518 kts 45°
2026-05-04 22:00 43.27150 -86.94609 28311 ft 520 kts 45°
2026-05-04 22:00 43.29486 -86.90802 28490 ft 523 kts 45°
2026-05-04 22:00 43.31832 -86.86974 28527 ft 525 kts 45°
2026-05-04 22:01 43.36517 -86.79307 28542 ft 520 kts 45°
2026-05-04 22:01 43.41162 -86.71683 28558 ft 519 kts 45°